This is the latest recevied weather packets stored in our database for station/object SP4IM-13. If no packets are shown the sender has not sent any weather packets the latest 1 day(s).
| Time | Temp. | Humidity | Pressure | Rain* | Wind** | Luminosity | Snow |
|---|---|---|---|---|---|---|---|
| 1778010002 | 15.56° C | 89% | 1005 hPa | - | 1.79 m/s, 119° | - | - |
| 1778009402 | 15.56° C | 89% | 1005 hPa | - | 1.79 m/s, 119° | - | - |
| 1778008802 | 16.11° C | 88% | 1005 hPa | - | 1.79 m/s, 120° | - | - |
| 1778008202 | 16.11° C | 88% | 1005 hPa | - | 1.79 m/s, 118° | - | - |
| 1778007602 | 16.11° C | 87% | 1005 hPa | - | 1.34 m/s, 115° | - | - |
| 1778007002 | 16.67° C | 86% | 1005 hPa | - | 1.34 m/s, 114° | - | - |
| 1778006403 | 16.67° C | 86% | 1005 hPa | - | 1.34 m/s, 116° | - | - |
| 1778005802 | 16.67° C | 85% | 1005 hPa | - | 1.34 m/s, 117° | - | - |
| 1778005202 | 17.22° C | 84% | 1005 hPa | - | 1.34 m/s, 114° | - | - |
| 1778004602 | 17.22° C | 84% | 1005 hPa | - | 1.34 m/s, 119° | - | - |
| 1778004002 | 17.78° C | 83% | 1005 hPa | - | 1.79 m/s, 119° | - | - |
| 1778003403 | 17.78° C | 81% | 1004 hPa | - | 1.34 m/s, 113° | - | - |
| 1778002802 | 17.78° C | 79% | 1004 hPa | - | 1.79 m/s, 119° | - | - |
| 1778002202 | 18.33° C | 78% | 1004 hPa | - | 1.34 m/s, 121° | - | - |
| 1778001603 | 18.33° C | 77% | 1004 hPa | - | 1.79 m/s, 120° | - | - |
| 1778001003 | 18.33° C | 76% | 1004 hPa | - | 1.79 m/s, 120° | - | - |
| 1778000402 | 18.33° C | 75% | 1004 hPa | - | 0.89 m/s, 114° | - | - |
| 1777999803 | 18.89° C | 74% | 1004 hPa | - | 1.34 m/s, 119° | - | - |
| 1777999202 | 18.89° C | 73% | 1005 hPa | - | 1.34 m/s, 119° | - | - |
| 1777998602 | 19.44° C | 72% | 1005 hPa | - | 1.34 m/s, 117° | - | - |
| 1777998002 | 19.44° C | 72% | 1005 hPa | - | 1.79 m/s, 122° | - | - |
| 1777997403 | 19.44° C | 71% | 1005 hPa | - | 1.34 m/s, 110° | - | - |
| 1777996202 | 20° C | 70% | 1005 hPa | - | 2.24 m/s, 302° | - | - |
| 1777995602 | 20° C | 69% | 1005 hPa | - | 2.24 m/s, 326° | - | - |
| 1777994402 | 20.56° C | 69% | 1006 hPa | - | 4.02 m/s, 305° | - | - |
* Rain since midnight (hover to see other rain measurements)
** Current wind speed in m/s (hover to see current wind gust speed)